MNB0403 OAKB-UTAA

Flight info

Callsign MNB0403
Flight time 1h 36m
Altitude 32000
Route LOBRE DCT TAPIS P173 DAVET B475 NINOP A125 KEMOR KEM29A
Aircraft A306/H-SDE3FGHIRWY/LB1

Departure

Time 2026-05-08 12:14
Airport Kabul International Airport (OAKB)

Arrival

Time 2026-05-08 13:51
Airport Ashgabat International Airport (UTAA)
Time Latitude Longitude Altitude Speed Heading
2026-05-08 11:46 34.56049 69.21857 5762 ft 0 kts 185°
2026-05-08 12:02 34.56051 69.21857 5759 ft 3 kts 185°
2026-05-08 12:03 34.56074 69.21858 5763 ft 4 kts 155°
2026-05-08 12:03 34.56089 69.21841 5760 ft 4 kts 101°
2026-05-08 12:03 34.56091 69.21815 5762 ft 1 kts 94°
2026-05-08 12:03 34.56092 69.21810 5761 ft 0 kts 94°
2026-05-08 12:09 34.56091 69.21820 5764 ft 3 kts 94°
2026-05-08 12:09 34.56089 69.21854 5764 ft 6 kts 93°
2026-05-08 12:09 34.56087 69.21913 5765 ft 8 kts 92°
2026-05-08 12:10 34.56109 69.21966 5765 ft 7 kts 26°
2026-05-08 12:10 34.56143 69.22002 5763 ft 5 kts 62°
2026-05-08 12:10 34.56147 69.22039 5763 ft 5 kts 86°
2026-05-08 12:10 34.56147 69.22088 5767 ft 7 kts 92°
2026-05-08 12:11 34.56146 69.22154 5763 ft 9 kts 91°
2026-05-08 12:11 34.56140 69.22234 5763 ft 10 kts 101°
2026-05-08 12:11 34.56123 69.22321 5764 ft 11 kts 105°
2026-05-08 12:11 34.56097 69.22418 5764 ft 13 kts 107°
2026-05-08 12:12 34.56071 69.22534 5766 ft 15 kts 103°
2026-05-08 12:12 34.56038 69.22657 5767 ft 16 kts 108°
2026-05-08 12:12 34.56004 69.22796 5770 ft 18 kts 110°
2026-05-08 12:12 34.55967 69.22942 5767 ft 15 kts 91°
2026-05-08 12:13 34.56023 69.23001 5764 ft 9 kts 20°
2026-05-08 12:13 34.56086 69.23022 5770 ft 9 kts
2026-05-08 12:13 34.56135 69.22973 5769 ft 5 kts 290°
2026-05-08 12:13 34.56147 69.22930 5767 ft 24 kts 288°
2026-05-08 12:14 34.56267 69.22470 5768 ft 89 kts 287°
2026-05-08 12:14 34.56512 69.21517 5764 ft 146 kts 288°
2026-05-08 12:14 34.56870 69.20115 5803 ft 200 kts 290°
2026-05-08 12:14 34.57271 69.18468 6667 ft 203 kts 291°
2026-05-08 12:15 34.57675 69.16802 7677 ft 210 kts 291°
2026-05-08 12:15 34.58171 69.15032 7961 ft 233 kts 295°
2026-05-08 12:15 34.58830 69.13149 8180 ft 250 kts 305°
2026-05-08 12:15 34.60156 69.11743 8333 ft 265 kts 339°
2026-05-08 12:16 34.62008 69.11513 8542 ft 277 kts 13°
2026-05-08 12:16 34.63692 69.12641 9109 ft 284 kts 44°
2026-05-08 12:16 34.64650 69.14750 9726 ft 295 kts 75°
2026-05-08 12:16 34.64580 69.17253 10260 ft 307 kts 105°
2026-05-08 12:17 34.63477 69.19544 10511 ft 328 kts 134°
2026-05-08 12:17 34.61681 69.21352 10767 ft 344 kts 141°
2026-05-08 12:17 34.59772 69.23219 11040 ft 359 kts 139°
2026-05-08 12:17 34.57872 69.25271 11275 ft 373 kts 136°
2026-05-08 12:18 34.55772 69.27212 11469 ft 388 kts 150°
2026-05-08 12:18 34.53181 69.28260 11702 ft 401 kts 172°
2026-05-08 12:18 34.50387 69.28127 12056 ft 406 kts 193°
2026-05-08 12:18 34.47707 69.27060 12595 ft 406 kts 202°
2026-05-08 12:19 34.45051 69.25866 13125 ft 409 kts 202°
2026-05-08 12:19 34.42358 69.24725 13656 ft 411 kts 200°
2026-05-08 12:19 34.39632 69.23639 14080 ft 415 kts 199°
2026-05-08 12:19 34.36875 69.22579 14522 ft 417 kts 199°
2026-05-08 12:20 34.34092 69.21530 14973 ft 421 kts 199°
2026-05-08 12:20 34.31312 69.20388 15383 ft 423 kts 204°
2026-05-08 12:20 34.28747 69.18766 15844 ft 422 kts 215°
2026-05-08 12:20 34.26467 69.16533 16275 ft 422 kts 227°
2026-05-08 12:21 34.24625 69.13783 16728 ft 422 kts 239°
2026-05-08 12:21 34.23297 69.10649 17175 ft 421 kts 251°
2026-05-08 12:21 34.22525 69.07248 17632 ft 420 kts 262°
2026-05-08 12:21 34.22341 69.03722 18052 ft 420 kts 274°
2026-05-08 12:22 34.22757 69.00242 18459 ft 420 kts 285°
2026-05-08 12:22 34.23746 68.96932 18862 ft 419 kts 296°
2026-05-08 12:22 34.25268 68.93925 19193 ft 421 kts 308°
2026-05-08 12:22 34.27167 68.91226 19552 ft 422 kts 315°
2026-05-08 12:23 34.29348 68.88839 19902 ft 425 kts 320°
2026-05-08 12:23 34.31671 68.86618 20278 ft 426 kts 323°
2026-05-08 12:23 34.34075 68.84504 20660 ft 428 kts 325°
2026-05-08 12:23 34.36523 68.82453 21047 ft 429 kts 326°
2026-05-08 12:24 34.38987 68.80432 21396 ft 431 kts 326°
2026-05-08 12:24 34.41486 68.78392 21800 ft 432 kts 326°
2026-05-08 12:24 34.43975 68.76355 22229 ft 432 kts 326°
2026-05-08 12:24 34.46463 68.74302 22627 ft 433 kts 326°
2026-05-08 12:25 34.48953 68.72236 23018 ft 434 kts 326°
2026-05-08 12:25 34.51439 68.70165 23410 ft 434 kts 326°
2026-05-08 12:25 34.53929 68.68082 23732 ft 436 kts 326°
2026-05-08 12:25 34.56436 68.65981 24011 ft 439 kts 326°
2026-05-08 12:26 34.58948 68.63877 24307 ft 440 kts 326°
2026-05-08 12:26 34.61463 68.61771 24681 ft 439 kts 326°
2026-05-08 12:26 34.63984 68.59658 24945 ft 441 kts 326°
2026-05-08 12:26 34.66513 68.57537 25200 ft 442 kts 326°
2026-05-08 12:27 34.69047 68.55411 25493 ft 444 kts 326°
2026-05-08 12:27 34.71591 68.53275 25786 ft 445 kts 326°
2026-05-08 12:27 34.74142 68.51130 26068 ft 446 kts 326°
2026-05-08 12:27 34.76696 68.48982 26366 ft 447 kts 326°
2026-05-08 12:28 34.79255 68.46827 26627 ft 448 kts 326°
2026-05-08 12:28 34.81820 68.44667 26832 ft 449 kts 326°
2026-05-08 12:28 34.84393 68.42501 27091 ft 450 kts 326°
2026-05-08 12:28 34.86966 68.40329 27444 ft 449 kts 326°
2026-05-08 12:29 34.89526 68.38163 27873 ft 446 kts 326°
2026-05-08 12:29 34.92034 68.36039 28291 ft 444 kts 326°
2026-05-08 12:29 34.94599 68.33867 28684 ft 441 kts 326°
2026-05-08 12:29 34.97113 68.31739 29011 ft 440 kts 326°
2026-05-08 12:30 34.99594 68.29639 29363 ft 439 kts 326°
2026-05-08 12:30 35.02090 68.27508 29809 ft 437 kts 324°
2026-05-08 12:30 35.04416 68.25134 30261 ft 435 kts 318°
2026-05-08 12:30 35.06446 68.22403 30584 ft 435 kts 310°
2026-05-08 12:31 35.08266 68.19456 30858 ft 434 kts 308°
2026-05-08 12:31 35.10015 68.16455 31160 ft 434 kts 307°
2026-05-08 12:31 35.11725 68.13430 31460 ft 433 kts 307°
2026-05-08 12:31 35.13417 68.10396 31829 ft 430 kts 307°
2026-05-08 12:32 35.15096 68.07380 32085 ft 430 kts 306°
2026-05-08 12:32 35.16778 68.04366 32118 ft 429 kts 306°
2026-05-08 12:32 35.20133 67.98381 32117 ft 425 kts 306°
2026-05-08 12:33 35.23488 67.92420 32117 ft 426 kts 306°
2026-05-08 12:33 35.26847 67.86447 32122 ft 426 kts 306°
2026-05-08 12:34 35.30206 67.80483 32122 ft 426 kts 306°
2026-05-08 12:34 35.33598 67.74535 32132 ft 426 kts 306°
2026-05-08 12:35 35.36990 67.68603 32133 ft 426 kts 306°
2026-05-08 12:35 35.40395 67.62630 32142 ft 427 kts 306°
2026-05-08 12:36 35.43786 67.56656 32148 ft 426 kts 306°
2026-05-08 12:36 35.47141 67.50728 32146 ft 426 kts 306°
2026-05-08 12:37 35.50522 67.44758 32148 ft 425 kts 306°
2026-05-08 12:37 35.53899 67.38797 32143 ft 425 kts 305°
2026-05-08 12:38 35.57266 67.32834 32151 ft 425 kts 306°
2026-05-08 12:38 35.60060 67.27875 32147 ft 425 kts 306°
2026-05-08 12:39 35.63418 67.21904 32142 ft 425 kts 305°
2026-05-08 12:39 35.66775 67.15920 32127 ft 425 kts 305°
2026-05-08 12:40 35.70134 67.09927 32100 ft 426 kts 305°
2026-05-08 12:40 35.73491 67.03934 32097 ft 425 kts 305°
2026-05-08 12:41 35.76846 66.97930 32081 ft 426 kts 304°
2026-05-08 12:41 35.80203 66.91914 32074 ft 426 kts 304°
2026-05-08 12:42 35.83568 66.85902 32063 ft 426 kts 304°
2026-05-08 12:42 35.86932 66.79895 32052 ft 426 kts 304°
2026-05-08 12:43 35.90296 66.73876 32049 ft 426 kts 304°
2026-05-08 12:43 35.93649 66.67862 32033 ft 426 kts 304°
2026-05-08 12:44 35.97004 66.61837 32027 ft 426 kts 304°
2026-05-08 12:44 36.00355 66.55805 32018 ft 426 kts 304°
2026-05-08 12:45 36.03705 66.49767 32009 ft 426 kts 304°
2026-05-08 12:45 36.07050 66.43729 31991 ft 426 kts 303°
2026-05-08 12:46 36.10371 66.37721 31984 ft 426 kts 303°
2026-05-08 12:46 36.13711 66.31670 31973 ft 426 kts 303°
2026-05-08 12:47 36.17072 66.25569 31972 ft 426 kts 303°
2026-05-08 12:47 36.20383 66.19547 31961 ft 426 kts 303°
2026-05-08 12:48 36.23710 66.13485 31956 ft 426 kts 303°
2026-05-08 12:48 36.27032 66.07414 31944 ft 426 kts 303°
2026-05-08 12:49 36.30351 66.01336 31942 ft 426 kts 302°
2026-05-08 12:49 36.33666 65.95253 31929 ft 426 kts 302°
2026-05-08 12:50 36.36978 65.89169 31926 ft 426 kts 302°
2026-05-08 12:50 36.40287 65.83078 31919 ft 425 kts 302°
2026-05-08 12:51 36.45240 65.73944 31911 ft 425 kts 302°
2026-05-08 12:52 36.48535 65.67853 31907 ft 425 kts 302°
2026-05-08 12:52 36.53472 65.58705 31903 ft 425 kts 302°
2026-05-08 12:53 36.56758 65.52601 31896 ft 425 kts 301°
2026-05-08 12:53 36.60039 65.46497 31901 ft 424 kts 301°
2026-05-08 12:54 36.63319 65.40385 31895 ft 424 kts 301°
2026-05-08 12:54 36.66571 65.34313 31895 ft 424 kts 301°
2026-05-08 12:55 36.69846 65.28187 31891 ft 424 kts 301°
2026-05-08 12:55 36.73112 65.22067 31894 ft 424 kts 301°
2026-05-08 12:56 36.76375 65.15940 31893 ft 424 kts 301°
2026-05-08 12:56 36.79638 65.09804 31888 ft 424 kts 301°
2026-05-08 12:57 36.82897 65.03663 31891 ft 424 kts 301°
2026-05-08 12:57 36.86152 64.97519 31891 ft 424 kts 300°
2026-05-08 12:58 36.89340 64.91491 31893 ft 424 kts 300°
2026-05-08 12:58 36.92589 64.85337 31892 ft 424 kts 300°
2026-05-08 12:59 36.95660 64.79059 31896 ft 422 kts 293°
2026-05-08 12:59 36.97685 64.72210 31899 ft 420 kts 286°
2026-05-08 13:00 36.99398 64.65237 31898 ft 420 kts 285°
2026-05-08 13:00 37.01053 64.58237 31900 ft 420 kts 284°
2026-05-08 13:01 37.02715 64.51237 31898 ft 420 kts 284°
2026-05-08 13:01 37.04387 64.44238 31899 ft 420 kts 285°
2026-05-08 13:02 37.06057 64.37246 31896 ft 419 kts 284°
2026-05-08 13:02 37.07725 64.30245 31898 ft 419 kts 284°
2026-05-08 13:03 37.09385 64.23250 31908 ft 419 kts 284°
2026-05-08 13:03 37.11042 64.16253 31913 ft 418 kts 284°
2026-05-08 13:04 37.12681 64.09308 31905 ft 419 kts 284°
2026-05-08 13:04 37.14328 64.02309 31917 ft 419 kts 284°
2026-05-08 13:05 37.15970 63.95310 31917 ft 418 kts 284°
2026-05-08 13:05 37.17607 63.88309 31915 ft 418 kts 284°
2026-05-08 13:06 37.19238 63.81314 31927 ft 418 kts 284°
2026-05-08 13:06 37.20867 63.74308 31923 ft 418 kts 284°
2026-05-08 13:07 37.22491 63.67308 31916 ft 418 kts 284°
2026-05-08 13:07 37.24109 63.60309 31923 ft 417 kts 284°
2026-05-08 13:08 37.25722 63.53309 31926 ft 417 kts 283°
2026-05-08 13:08 37.27332 63.46306 31926 ft 417 kts 283°
2026-05-08 13:09 37.28936 63.39303 31927 ft 417 kts 283°
2026-05-08 13:09 37.30535 63.32305 31928 ft 417 kts 283°
2026-05-08 13:10 37.32131 63.25296 31931 ft 417 kts 283°
2026-05-08 13:10 37.33722 63.18289 31934 ft 417 kts 283°
2026-05-08 13:11 37.35308 63.11281 31933 ft 417 kts 283°
2026-05-08 13:11 37.36889 63.04276 31933 ft 417 kts 283°
2026-05-08 13:12 37.38456 62.97317 31935 ft 416 kts 283°
2026-05-08 13:12 37.40038 62.90267 31934 ft 416 kts 283°
2026-05-08 13:13 37.41593 62.83312 31941 ft 416 kts 283°
2026-05-08 13:13 37.43155 62.76307 31940 ft 416 kts 283°
2026-05-08 13:14 37.44710 62.69307 31943 ft 415 kts 282°
2026-05-08 13:14 37.46192 62.62619 31951 ft 415 kts 282°
2026-05-08 13:15 37.47737 62.55624 31939 ft 414 kts 282°
2026-05-08 13:15 37.49276 62.48636 31945 ft 415 kts 282°
2026-05-08 13:16 37.50813 62.41641 31950 ft 414 kts 282°
2026-05-08 13:16 37.52344 62.34647 31945 ft 414 kts 282°
2026-05-08 13:17 37.53868 62.27661 31956 ft 414 kts 282°
2026-05-08 13:17 37.55390 62.20667 31956 ft 414 kts 282°
2026-05-08 13:18 37.56897 62.13718 31958 ft 413 kts 282°
2026-05-08 13:18 37.58408 62.06729 31964 ft 413 kts 282°
2026-05-08 13:19 37.59915 61.99737 31966 ft 413 kts 282°
2026-05-08 13:19 37.61418 61.92739 31965 ft 413 kts 281°
2026-05-08 13:20 37.62513 61.85659 31968 ft 410 kts 275°
2026-05-08 13:20 37.63269 61.78529 31967 ft 410 kts 274°
2026-05-08 13:21 37.63965 61.71383 31970 ft 410 kts 274°
2026-05-08 13:21 37.64655 61.64243 31969 ft 410 kts 274°
2026-05-08 13:22 37.65349 61.57104 31969 ft 410 kts 274°
2026-05-08 13:22 37.66044 61.49955 31975 ft 410 kts 274°
2026-05-08 13:23 37.66735 61.42808 31978 ft 410 kts 274°
2026-05-08 13:23 37.67421 61.35662 31981 ft 410 kts 274°
2026-05-08 13:24 37.68103 61.28514 31981 ft 410 kts 274°
2026-05-08 13:24 37.68780 61.21359 31983 ft 410 kts 274°
2026-05-08 13:25 37.69453 61.14205 31988 ft 410 kts 274°
2026-05-08 13:25 37.70009 61.08258 31990 ft 410 kts 273°
2026-05-08 13:26 37.70674 61.01109 31995 ft 410 kts 273°
2026-05-08 13:26 37.71334 60.93963 31997 ft 410 kts 273°
2026-05-08 13:27 37.71989 60.86816 31998 ft 410 kts 273°
2026-05-08 13:27 37.72640 60.79663 31842 ft 411 kts 273°
2026-05-08 13:28 37.72966 60.76060 31084 ft 414 kts 273°
2026-05-08 13:28 37.73291 60.72459 30528 ft 410 kts 272°
2026-05-08 13:28 37.73614 60.68902 30046 ft 405 kts 272°
2026-05-08 13:28 37.73931 60.65391 29501 ft 400 kts 272°
2026-05-08 13:29 37.74242 60.61927 29026 ft 394 kts 272°
2026-05-08 13:29 37.74548 60.58503 28556 ft 389 kts 272°
2026-05-08 13:29 37.74848 60.55129 28090 ft 384 kts 272°
2026-05-08 13:29 37.75193 60.51798 27648 ft 380 kts 274°
2026-05-08 13:30 37.75592 60.48518 27229 ft 376 kts 274°
2026-05-08 13:30 37.75997 60.45269 26792 ft 373 kts 274°
2026-05-08 13:30 37.76398 60.42031 26352 ft 373 kts 274°
2026-05-08 13:30 37.76798 60.38800 25903 ft 372 kts 274°
2026-05-08 13:31 37.77195 60.35582 25497 ft 370 kts 274°
2026-05-08 13:31 37.77589 60.32383 25078 ft 368 kts 274°
2026-05-08 13:31 37.77981 60.29193 24649 ft 366 kts 274°
2026-05-08 13:31 37.78370 60.26019 24220 ft 365 kts 274°
2026-05-08 13:32 37.78755 60.22862 23804 ft 363 kts 274°
2026-05-08 13:32 37.79134 60.19751 23360 ft 362 kts 274°
2026-05-08 13:32 37.79520 60.16580 22923 ft 359 kts 274°
2026-05-08 13:32 37.79893 60.13513 22495 ft 357 kts 274°
2026-05-08 13:33 37.80273 60.10377 22059 ft 356 kts 274°
2026-05-08 13:33 37.80640 60.07334 21653 ft 354 kts 274°
2026-05-08 13:33 37.81010 60.04260 21241 ft 353 kts 273°
2026-05-08 13:33 37.81379 60.01196 20814 ft 352 kts 273°
2026-05-08 13:34 37.81744 59.98146 20384 ft 351 kts 273°
2026-05-08 13:34 37.82109 59.95099 19955 ft 349 kts 273°
2026-05-08 13:34 37.82471 59.92073 19541 ft 347 kts 273°
2026-05-08 13:34 37.82830 59.89061 19131 ft 346 kts 272°
2026-05-08 13:35 37.83187 59.86060 18704 ft 345 kts 272°
2026-05-08 13:35 37.83542 59.83063 18251 ft 344 kts 272°
2026-05-08 13:35 37.83894 59.80077 17780 ft 342 kts 272°
2026-05-08 13:35 37.84245 59.77108 17368 ft 341 kts 273°
2026-05-08 13:36 37.84593 59.74145 16958 ft 341 kts 273°
2026-05-08 13:36 37.84941 59.71177 16523 ft 341 kts 273°
2026-05-08 13:36 37.85288 59.68217 16095 ft 340 kts 274°
2026-05-08 13:36 37.85635 59.65254 15681 ft 340 kts 274°
2026-05-08 13:37 37.85980 59.62299 15265 ft 339 kts 274°
2026-05-08 13:37 37.86324 59.59348 14842 ft 339 kts 274°
2026-05-08 13:37 37.86666 59.56408 14403 ft 338 kts 274°
2026-05-08 13:37 37.87006 59.53473 13964 ft 336 kts 275°
2026-05-08 13:38 37.87344 59.50552 13521 ft 335 kts 275°
2026-05-08 13:38 37.87680 59.47646 13086 ft 333 kts 275°
2026-05-08 13:38 37.88013 59.44760 12673 ft 330 kts 275°
2026-05-08 13:38 37.88343 59.41897 12280 ft 328 kts 275°
2026-05-08 13:39 37.88669 59.39050 11876 ft 325 kts 276°
2026-05-08 13:39 37.88992 59.36226 11443 ft 324 kts 275°
2026-05-08 13:39 37.89234 59.33402 11031 ft 320 kts 272°
2026-05-08 13:39 37.89412 59.30626 10835 ft 311 kts 272°
2026-05-08 13:40 37.89575 59.27958 10746 ft 298 kts 272°
2026-05-08 13:40 37.89730 59.25392 10621 ft 287 kts 272°
2026-05-08 13:40 37.89879 59.22910 10498 ft 278 kts 271°
2026-05-08 13:40 37.90023 59.20501 10296 ft 274 kts 271°
2026-05-08 13:41 37.90167 59.18091 9964 ft 275 kts 271°
2026-05-08 13:41 37.90310 59.15675 9621 ft 275 kts 271°
2026-05-08 13:41 37.90452 59.13266 9313 ft 274 kts 271°
2026-05-08 13:41 37.90594 59.10864 8997 ft 273 kts 272°
2026-05-08 13:42 37.90736 59.08468 8688 ft 272 kts 272°
2026-05-08 13:42 37.90877 59.06080 8379 ft 272 kts 272°
2026-05-08 13:42 37.91016 59.03702 8083 ft 270 kts 272°
2026-05-08 13:42 37.91155 59.01336 7782 ft 269 kts 272°
2026-05-08 13:43 37.91293 58.98976 7491 ft 268 kts 273°
2026-05-08 13:43 37.91430 58.96625 7192 ft 268 kts 273°
2026-05-08 13:43 37.91567 58.94276 6888 ft 267 kts 273°
2026-05-08 13:43 37.91702 58.91928 6584 ft 267 kts 273°
2026-05-08 13:44 37.91837 58.89582 6277 ft 267 kts 273°
2026-05-08 13:44 37.91973 58.87239 5979 ft 266 kts 273°
2026-05-08 13:44 37.92107 58.84905 5699 ft 266 kts 272°
2026-05-08 13:44 37.92241 58.82570 5402 ft 265 kts 272°
2026-05-08 13:45 37.92375 58.80243 5125 ft 264 kts 272°
2026-05-08 13:45 37.92506 58.77928 4835 ft 263 kts 272°
2026-05-08 13:45 37.92634 58.75649 4544 ft 262 kts 272°
2026-05-08 13:45 37.92764 58.73349 4264 ft 261 kts 272°
2026-05-08 13:46 37.92893 58.71061 3985 ft 260 kts 272°
2026-05-08 13:46 37.93018 58.68780 3709 ft 260 kts 273°
2026-05-08 13:46 37.93111 58.67076 3501 ft 259 kts 273°
2026-05-08 13:46 37.93237 58.64800 3221 ft 259 kts 274°
2026-05-08 13:47 37.93360 58.62535 2947 ft 257 kts 272°
2026-05-08 13:47 37.93309 58.60282 2691 ft 255 kts 263°
2026-05-08 13:47 37.92945 58.58076 2536 ft 260 kts 255°
2026-05-08 13:47 37.92459 58.55854 2515 ft 259 kts 254°
2026-05-08 13:48 37.92056 58.53682 2479 ft 246 kts 265°
2026-05-08 13:48 37.92345 58.51657 2481 ft 226 kts 293°
2026-05-08 13:48 37.93037 58.49954 2480 ft 210 kts 301°
2026-05-08 13:48 37.93747 58.48417 2477 ft 194 kts 301°
2026-05-08 13:49 37.94403 58.46937 2344 ft 191 kts 300°
2026-05-08 13:49 37.95033 58.45502 2079 ft 181 kts 300°
2026-05-08 13:49 37.95641 58.44136 1795 ft 177 kts 301°
2026-05-08 13:49 37.96225 58.42827 1537 ft 161 kts 300°
2026-05-08 13:50 37.96746 58.41657 1335 ft 144 kts 299°
2026-05-08 13:50 37.97217 58.40600 1108 ft 134 kts 299°
2026-05-08 13:50 37.97688 58.39574 1025 ft 139 kts 298°
2026-05-08 13:50 37.98166 58.38472 797 ft 142 kts 298°
2026-05-08 13:51 37.98633 58.37417 682 ft 128 kts 298°
2026-05-08 13:51 37.98972 58.36671 679 ft 60 kts 298°
2026-05-08 13:51 37.99047 58.36507 680 ft 3 kts 300°
2026-05-08 13:51 37.99072 58.36452 680 ft 11 kts 299°
2026-05-08 13:52 37.99119 58.36345 681 ft 17 kts 298°
2026-05-08 13:52 37.99186 58.36192 681 ft 23 kts 300°
2026-05-08 13:52 37.98721 58.35220 680 ft 0 kts 28°